Location: Kaiser
(34.0939°N, 117.4889°W)
Time: 03:30:46
(UTC+00:00)

ATLAS CENTAUR R/B - Pass Details

Date: 29 October 2020
Orbit: 478 x 667 km, 64.7° (Epoch: 22 November)

Event Time Altitude Azimuth Distance (km) Brightness Sun altitude
Rises 12:38:55 0° 197° (SSW) 2,708 4.7 -18.9°
Reaches altitude 10° 12:41:13 10° 192° (SSW) 1,786 3.8 -18.4°
Maximum altitude 12:45:04 51° 116° (ESE) 656 2.0 -17.6°
Drops below altitude 10° 12:48:46 10° 40° (NE) 1,707 4.3 -16.8°
Sets 12:50:55 0° 35° (NE) 2,573 5.2 -16.4°
